Location: Gro�sch�nbrunn
(49.5760°N, 11.8868°E)
Time: 09:05:45
(UTC+00:00)

N. Korean satellite - Pass Details

Date: 04 December 2020
Orbit: 453 x 502 km, 97.2° (Epoch: 16 January)

Event Time Altitude Azimuth Distance (km) Brightness Sun altitude
Rises 16:34:08 0° 197° (SSW) 2,466 10.7 -12.4°
Reaches altitude 10° 16:36:28 10° 212° (SSW) 1,604 10.0 -12.7°
Maximum altitude 16:39:14 23° 266° (W) 1,048 9.2 -13.2°
Drops below altitude 10° 16:42:04 10° 320° (NW) 1,635 9.5 -13.6°
Sets 16:44:28 0° 336° (NNW) 2,528 10.3 -14.0°
